Hourly Weather Kraevskiy

Today, 27 October, Tuesday

Time Temperature Precipitation Wind Pressure Humidity
00:00 +5°C° 0 mm 1 mps 756 mmHg 73%
01:00 +3°C° 0 mm 2 mps 756 mmHg 81%
02:00 +3°C° 0 mm 2 mps 756 mmHg 81%
03:00 +3°C° 0 mm 2 mps 756 mmHg 79%
04:00 +3°C° 0 mm 2 mps 756 mmHg 79%
05:00 +3°C° 0 mm 2 mps 756 mmHg 80%
06:00 +3°C° 0 mm 2 mps 756 mmHg 80%
07:00 +4°C° 0 mm 2 mps 756 mmHg 76%
08:00 +5°C° 0 mm 2 mps 756 mmHg 72%
09:00 +5°C° 0 mm 3 mps 756 mmHg 68%
10:00 +8°C° 0 mm 3 mps 756 mmHg 64%
11:00 +9°C° 0 mm 2 mps 756 mmHg 60%
12:00 +12°C° 0 mm 2 mps 755 mmHg 56%
13:00 +12°C° 0 mm 2 mps 755 mmHg 57%
14:00 +13°C° 0 mm 2 mps 755 mmHg 58%
15:00 +13°C° 0 mm 2 mps 754 mmHg 60%
16:00 +12°C° 0 mm 2 mps 755 mmHg 64%
17:00 +11°C° 0 mm 1 mps 755 mmHg 69%
18:00 +10°C° 0 mm 1 mps 756 mmHg 73%
19:00 +9°C° 0 mm 1 mps 756 mmHg 72%
20:00 +8°C° 0 mm 2 mps 757 mmHg 72%
21:00 +8°C° 0 mm 2 mps 757 mmHg 71%
22:00 +7°C° 0 mm 2 mps 757 mmHg 70%
23:00 +7°C° 0 mm 2 mps 757 mmHg 68%

Tomorrow, 28 October, Wednesday

Time Temperature Precipitation Wind Pressure Humidity
00:00 +7°C° 0 mm 1 mps 758 mmHg 67%
01:00 +7°C° 0 mm 1 mps 757 mmHg 68%
02:00 +6°C° 0 mm 1 mps 757 mmHg 68%
03:00 +6°C° 0 mm 1 mps 757 mmHg 69%
04:00 +5°C° 0 mm 1 mps 757 mmHg 70%
05:00 +4°C° 0 mm 1 mps 757 mmHg 72%
06:00 +4°C° 0 mm 1 mps 757 mmHg 73%
07:00 +4°C° 0 mm 2 mps 757 mmHg 67%
08:00 +5°C° 0 mm 2 mps 757 mmHg 62%
09:00 +6°C° 0 mm 2 mps 757 mmHg 57%
10:00 +5°C° 0 mm 3 mps 757 mmHg 51%
11:00 +7°C° 0 mm 3 mps 757 mmHg 46%
12:00 +8°C° 0 mm 3 mps 756 mmHg 41%
13:00 +8°C° 0 mm 3 mps 756 mmHg 41%
14:00 +7°C° 0 mm 3 mps 756 mmHg 41%
15:00 +7°C° 0 mm 3 mps 755 mmHg 41%
16:00 +6°C° 0 mm 2 mps 756 mmHg 45%
17:00 +5°C° 0 mm 2 mps 756 mmHg 49%
18:00 +5°C° 0 mm 1 mps 757 mmHg 53%
19:00 +4°C° 0 mm 2 mps 757 mmHg 54%
20:00 +3°C° 0 mm 2 mps 757 mmHg 55%
21:00 +3°C° 0 mm 2 mps 757 mmHg 56%
22:00 +2°C° 0 mm 3 mps 757 mmHg 59%
23:00 +1°C° 0 mm 3 mps 757 mmHg 62%

Day after tomorrow, 29 October, Thursday

Time Temperature Precipitation Wind Pressure Humidity
00:00 +1°C° 0 mm 3 mps 757 mmHg 65%
01:00 +1°C° 0 mm 3 mps 757 mmHg 67%
02:00 0°C° 0 mm 3 mps 757 mmHg 69%
03:00 +1°C° 0 mm 2 mps 757 mmHg 71%
04:00 +1°C° 0 mm 2 mps 757 mmHg 72%
05:00 +1°C° 0 mm 2 mps 757 mmHg 73%
06:00 -1°C° 0 mm 2 mps 757 mmHg 73%
07:00 0°C° 0 mm 3 mps 757 mmHg 69%
08:00 0°C° 0 mm 4 mps 757 mmHg 64%
09:00 +1°C° 0 mm 5 mps 758 mmHg 60%
10:00 +1°C° 0 mm 5 mps 757 mmHg 59%
11:00 +2°C° 0 mm 5 mps 757 mmHg 58%
12:00 +2°C° 0 mm 5 mps 757 mmHg 58%
13:00 +3°C° 0.1 mm 5 mps 757 mmHg 59%
14:00 +3°C° 0.1 mm 6 mps 757 mmHg 59%
15:00 +3°C° 0.1 mm 6 mps 757 mmHg 60%
16:00 +2°C° 0 mm 5 mps 758 mmHg 63%
17:00 +2°C° 0 mm 5 mps 758 mmHg 66%
18:00 +1°C° 0 mm 4 mps 758 mmHg 70%
19:00 +1°C° 0 mm 5 mps 758 mmHg 70%
20:00 +1°C° 0 mm 5 mps 759 mmHg 70%
21:00 +1°C° 0 mm 5 mps 759 mmHg 70%
22:00 +1°C° 0 mm 5 mps 759 mmHg 73%
23:00 0°C° 0 mm 5 mps 759 mmHg 76%

30 October, Friday

Time Temperature Precipitation Wind Pressure Humidity
00:00 0°C° 0 mm 5 mps 759 mmHg 79%
01:00 0°C° 0 mm 4 mps 760 mmHg 81%
02:00 -1°C° 0 mm 4 mps 760 mmHg 83%
03:00 -1°C° 0 mm 4 mps 760 mmHg 86%
04:00 -1°C° 0.1 mm 4 mps 761 mmHg 87%
05:00 -1°C° 0.1 mm 4 mps 761 mmHg 88%
06:00 -1°C° 0.1 mm 4 mps 761 mmHg 89%
07:00 0°C° 0 mm 3 mps 762 mmHg 87%
08:00 +1°C° 0 mm 3 mps 762 mmHg 84%
09:00 +1°C° 0 mm 3 mps 763 mmHg 81%
10:00 +2°C° 0 mm 3 mps 763 mmHg 77%
11:00 +4°C° 0 mm 3 mps 763 mmHg 72%
12:00 +6°C° 0 mm 2 mps 762 mmHg 68%
13:00 +6°C° 0 mm 2 mps 762 mmHg 66%
14:00 +6°C° 0 mm 2 mps 762 mmHg 65%
15:00 +8°C° 0 mm 1 mps 762 mmHg 64%
16:00 +7°C° 0 mm 1 mps 762 mmHg 68%
17:00 +6°C° 0 mm 1 mps 762 mmHg 72%
18:00 +5°C° 0 mm 1 mps 763 mmHg 76%
19:00 +4°C° 0 mm 1 mps 763 mmHg 78%
20:00 +4°C° 0 mm 1 mps 762 mmHg 80%
21:00 +2°C° 0 mm 2 mps 762 mmHg 83%
22:00 +2°C° 0 mm 2 mps 762 mmHg 84%
23:00 +2°C° 0 mm 2 mps 762 mmHg 86%

31 October, Saturday

Time Temperature Precipitation Wind Pressure Humidity
00:00 +1°C° 0 mm 2 mps 762 mmHg 88%
01:00 +1°C° 0 mm 2 mps 762 mmHg 88%
02:00 +1°C° 0 mm 2 mps 761 mmHg 89%
03:00 +1°C° 0 mm 2 mps 761 mmHg 89%
04:00 +1°C° 0 mm 2 mps 761 mmHg 88%
05:00 +1°C° 0 mm 2 mps 760 mmHg 87%
06:00 +1°C° 0 mm 2 mps 760 mmHg 86%
07:00 +2°C° 0 mm 2 mps 760 mmHg 80%
08:00 +3°C° 0 mm 2 mps 760 mmHg 75%
09:00 +3°C° 0 mm 3 mps 759 mmHg 69%
10:00 +4°C° 0 mm 3 mps 759 mmHg 65%
11:00 +7°C° 0 mm 3 mps 758 mmHg 61%
12:00 +9°C° 0 mm 3 mps 757 mmHg 57%
13:00 +9°C° 0 mm 3 mps 757 mmHg 59%
14:00 +10°C° 0 mm 3 mps 756 mmHg 62%
15:00 +11°C° 0 mm 3 mps 756 mmHg 64%
16:00 +10°C° 0 mm 3 mps 756 mmHg 70%
17:00 +9°C° 0 mm 3 mps 755 mmHg 76%
18:00 +8°C° 0 mm 3 mps 755 mmHg 81%
19:00 +7°C° 0 mm 3 mps 755 mmHg 81%
20:00 +7°C° 0 mm 3 mps 754 mmHg 81%
21:00 +6°C° 0 mm 4 mps 754 mmHg 81%
22:00 +6°C° 0 mm 4 mps 754 mmHg 79%
23:00 +6°C° 0 mm 4 mps 753 mmHg 78%

1 November, Sunday

Time Temperature Precipitation Wind Pressure Humidity
00:00 +7°C° 0 mm 4 mps 753 mmHg 76%
01:00 +7°C° 0.2 mm 4 mps 752 mmHg 78%
02:00 +6°C° 0.2 mm 5 mps 751 mmHg 81%
03:00 +6°C° 0.2 mm 5 mps 751 mmHg 83%
04:00 +6°C° 0.5 mm 5 mps 750 mmHg 85%
05:00 +6°C° 0.5 mm 5 mps 750 mmHg 87%
06:00 +6°C° 0.5 mm 5 mps 750 mmHg 89%
07:00 +7°C° 0.1 mm 5 mps 749 mmHg 85%
08:00 +8°C° 0.1 mm 5 mps 749 mmHg 82%
09:00 +10°C° 0.1 mm 6 mps 749 mmHg 78%
10:00 +11°C° 0.2 mm 6 mps 748 mmHg 71%
11:00 +12°C° 0.2 mm 7 mps 748 mmHg 64%
12:00 +13°C° 0.2 mm 8 mps 747 mmHg 56%
13:00 +14°C° 0.1 mm 7 mps 747 mmHg 56%
14:00 +14°C° 0.1 mm 6 mps 747 mmHg 56%
15:00 +13°C° 0.1 mm 5 mps 746 mmHg 55%
16:00 +12°C° 0.1 mm 4 mps 747 mmHg 59%
17:00 +10°C° 0.1 mm 4 mps 747 mmHg 63%
18:00 +9°C° 0.1 mm 3 mps 747 mmHg 67%
19:00 +8°C° 0 mm 3 mps 747 mmHg 66%
20:00 +7°C° 0 mm 3 mps 748 mmHg 66%
21:00 +5°C° 0 mm 4 mps 748 mmHg 65%
22:00 +5°C° 0 mm 4 mps 748 mmHg 66%
23:00 +4°C° 0 mm 3 mps 749 mmHg 67%
Show more